RSC11ZJ GCXO-GCLA

Flight info

Callsign RSC11ZJ
Flight time 0h 27m
Altitude 14000
Route ARACO
Aircraft AT76/M-SDFGIRY/S

Departure

Time 2026-04-22 17:40
Airport Tenerife Norte-Ciudad de La Laguna Airport (GCXO)

Arrival

Time 2026-04-22 18:07
Airport La Palma Airport (GCLA)
Time Latitude Longitude Altitude Speed Heading
2026-04-22 17:09 28.48669 -16.34629 2066 ft 0 kts 21°
2026-04-22 17:33 28.48661 -16.34633 2066 ft 3 kts 20°
2026-04-22 17:34 28.48633 -16.34645 2067 ft 6 kts 19°
2026-04-22 17:34 28.48594 -16.34666 2068 ft 5 kts 65°
2026-04-22 17:34 28.48584 -16.34653 2067 ft 5 kts 141°
2026-04-22 17:34 28.48545 -16.34618 2066 ft 8 kts 129°
2026-04-22 17:35 28.48510 -16.34542 2062 ft 13 kts 116°
2026-04-22 17:35 28.48469 -16.34430 2057 ft 17 kts 108°
2026-04-22 17:35 28.48428 -16.34294 2051 ft 19 kts 108°
2026-04-22 17:35 28.48380 -16.34148 2045 ft 20 kts 107°
2026-04-22 17:36 28.48331 -16.33993 2040 ft 21 kts 110°
2026-04-22 17:36 28.48275 -16.33843 2036 ft 20 kts 113°
2026-04-22 17:36 28.48230 -16.33696 2040 ft 20 kts 109°
2026-04-22 17:36 28.48182 -16.33552 2033 ft 21 kts 111°
2026-04-22 17:37 28.48130 -16.33397 2037 ft 21 kts 110°
2026-04-22 17:37 28.48080 -16.33246 2029 ft 20 kts 111°
2026-04-22 17:37 28.48047 -16.33145 2022 ft 21 kts 108°
2026-04-22 17:37 28.47979 -16.32943 2015 ft 20 kts 110°
2026-04-22 17:38 28.47930 -16.32801 2013 ft 19 kts 113°
2026-04-22 17:38 28.47888 -16.32672 2012 ft 10 kts 107°
2026-04-22 17:38 28.47854 -16.32587 2009 ft 13 kts 129°
2026-04-22 17:38 28.47812 -16.32547 2010 ft 11 kts 143°
2026-04-22 17:39 28.47754 -16.32571 2013 ft 5 kts 269°
2026-04-22 17:39 28.47796 -16.32733 2015 ft 49 kts 290°
2026-04-22 17:39 28.48159 -16.33817 2052 ft 117 kts 290°
2026-04-22 17:40 28.48423 -16.34677 2332 ft 119 kts 291°
2026-04-22 17:40 28.48687 -16.35562 2850 ft 121 kts 290°
2026-04-22 17:40 28.48992 -16.36467 3297 ft 119 kts 289°
2026-04-22 17:40 28.49265 -16.37471 3294 ft 146 kts 283°
2026-04-22 17:41 28.49254 -16.38552 3731 ft 135 kts 259°
2026-04-22 17:41 28.49112 -16.39725 3677 ft 163 kts 269°
2026-04-22 17:41 28.49268 -16.41076 3817 ft 178 kts 282°
2026-04-22 17:41 28.49553 -16.42448 4111 ft 179 kts 283°
2026-04-22 17:42 28.49857 -16.43830 4404 ft 180 kts 283°
2026-04-22 17:42 28.50167 -16.45211 4698 ft 180 kts 283°
2026-04-22 17:42 28.50479 -16.46576 4965 ft 181 kts 283°
2026-04-22 17:42 28.50802 -16.47962 5242 ft 181 kts 282°
2026-04-22 17:43 28.50859 -16.49370 5468 ft 178 kts 261°
2026-04-22 17:43 28.50721 -16.50778 5724 ft 179 kts 260°
2026-04-22 17:43 28.50580 -16.52184 6007 ft 179 kts 261°
2026-04-22 17:43 28.50454 -16.53591 6279 ft 180 kts 262°
2026-04-22 17:44 28.50349 -16.55020 6536 ft 181 kts 263°
2026-04-22 17:44 28.50266 -16.56453 6802 ft 181 kts 263°
2026-04-22 17:44 28.50188 -16.57884 7076 ft 181 kts 264°
2026-04-22 17:44 28.50111 -16.59301 7319 ft 182 kts 264°
2026-04-22 17:45 28.50037 -16.60736 7567 ft 182 kts 264°
2026-04-22 17:45 28.49959 -16.62173 7814 ft 182 kts 264°
2026-04-22 17:45 28.49882 -16.63610 8061 ft 181 kts 264°
2026-04-22 17:45 28.49804 -16.65043 8303 ft 181 kts 264°
2026-04-22 17:46 28.49726 -16.66477 8536 ft 181 kts 264°
2026-04-22 17:46 28.49649 -16.67907 8769 ft 181 kts 264°
2026-04-22 17:46 28.49572 -16.69320 8997 ft 181 kts 264°
2026-04-22 17:46 28.49495 -16.70749 9229 ft 181 kts 264°
2026-04-22 17:47 28.49416 -16.72179 9467 ft 181 kts 264°
2026-04-22 17:47 28.49339 -16.73604 9687 ft 181 kts 264°
2026-04-22 17:47 28.49260 -16.75035 9905 ft 181 kts 264°
2026-04-22 17:47 28.49182 -16.76470 10100 ft 181 kts 263°
2026-04-22 17:48 28.49103 -16.77904 10280 ft 182 kts 263°
2026-04-22 17:48 28.49023 -16.79344 10467 ft 182 kts 263°
2026-04-22 17:48 28.48943 -16.80785 10657 ft 183 kts 263°
2026-04-22 17:48 28.48862 -16.82212 10837 ft 183 kts 263°
2026-04-22 17:49 28.48777 -16.83680 11028 ft 184 kts 263°
2026-04-22 17:49 28.48683 -16.85114 11206 ft 184 kts 262°
2026-04-22 17:49 28.48567 -16.86569 11384 ft 185 kts 261°
2026-04-22 17:49 28.48444 -16.88025 11561 ft 185 kts 261°
2026-04-22 17:50 28.48318 -16.89485 11746 ft 185 kts 261°
2026-04-22 17:50 28.48190 -16.90945 11923 ft 186 kts 261°
2026-04-22 17:50 28.48061 -16.92413 12096 ft 187 kts 261°
2026-04-22 17:50 28.47933 -16.93866 12274 ft 187 kts 261°
2026-04-22 17:51 28.47802 -16.95340 12446 ft 187 kts 261°
2026-04-22 17:51 28.47671 -16.96815 12620 ft 188 kts 261°
2026-04-22 17:51 28.47540 -16.98291 12790 ft 188 kts 261°
2026-04-22 17:51 28.47409 -16.99776 12958 ft 189 kts 261°
2026-04-22 17:52 28.47276 -17.01265 13120 ft 189 kts 261°
2026-04-22 17:52 28.47142 -17.02757 13285 ft 189 kts 260°
2026-04-22 17:52 28.47008 -17.04255 13444 ft 190 kts 261°
2026-04-22 17:52 28.46875 -17.05748 13600 ft 191 kts 260°
2026-04-22 17:53 28.46742 -17.07230 13751 ft 191 kts 261°
2026-04-22 17:53 28.46607 -17.08735 13896 ft 192 kts 260°
2026-04-22 17:53 28.46471 -17.10265 13947 ft 197 kts 261°
2026-04-22 17:53 28.46329 -17.11841 13967 ft 202 kts 261°
2026-04-22 17:54 28.46185 -17.13445 13983 ft 207 kts 261°
2026-04-22 17:54 28.46036 -17.15090 13993 ft 211 kts 261°
2026-04-22 17:54 28.45883 -17.16772 13788 ft 223 kts 261°
2026-04-22 17:54 28.45721 -17.18561 13477 ft 231 kts 261°
2026-04-22 17:55 28.45554 -17.20401 13168 ft 237 kts 261°
2026-04-22 17:55 28.45383 -17.22288 12823 ft 242 kts 261°
2026-04-22 17:55 28.45208 -17.24206 12492 ft 245 kts 262°
2026-04-22 17:55 28.45032 -17.26147 12160 ft 248 kts 262°
2026-04-22 17:56 28.44854 -17.28106 11821 ft 250 kts 262°
2026-04-22 17:56 28.44673 -17.30077 11494 ft 252 kts 262°
2026-04-22 17:56 28.44492 -17.32063 11148 ft 253 kts 262°
2026-04-22 17:56 28.44311 -17.34051 10700 ft 252 kts 262°
2026-04-22 17:57 28.44128 -17.36027 10254 ft 251 kts 262°
2026-04-22 17:57 28.43950 -17.37974 9805 ft 250 kts 262°
2026-04-22 17:57 28.43767 -17.39935 9460 ft 247 kts 262°
2026-04-22 17:57 28.43591 -17.41863 9039 ft 246 kts 262°
2026-04-22 17:58 28.43415 -17.43797 8536 ft 245 kts 262°
2026-04-22 17:58 28.43239 -17.45719 8145 ft 243 kts 263°
2026-04-22 17:58 28.43148 -17.47639 7776 ft 243 kts 267°
2026-04-22 17:58 28.43141 -17.49551 7407 ft 242 kts 269°
2026-04-22 17:59 28.43149 -17.51461 7044 ft 241 kts 269°
2026-04-22 17:59 28.43155 -17.53361 6682 ft 240 kts 269°
2026-04-22 17:59 28.43148 -17.55230 6325 ft 238 kts 268°
2026-04-22 17:59 28.43128 -17.57108 5937 ft 237 kts 268°
2026-04-22 18:00 28.43113 -17.58375 5680 ft 237 kts 268°
2026-04-22 18:00 28.43082 -17.60835 5324 ft 231 kts 268°
2026-04-22 18:00 28.43058 -17.62645 5089 ft 227 kts 268°
2026-04-22 18:00 28.43034 -17.64423 4857 ft 223 kts 269°
2026-04-22 18:01 28.43010 -17.66147 4630 ft 219 kts 268°
2026-04-22 18:01 28.42987 -17.67862 4404 ft 215 kts 268°
2026-04-22 18:01 28.42963 -17.69555 4184 ft 213 kts 269°
2026-04-22 18:01 28.42941 -17.71205 3969 ft 200 kts 269°
2026-04-22 18:02 28.42919 -17.72712 3749 ft 182 kts 269°
2026-04-22 18:02 28.43250 -17.74035 3543 ft 180 kts 309°
2026-04-22 18:02 28.44325 -17.74757 3342 ft 183 kts 340°
2026-04-22 18:02 28.45535 -17.75116 3155 ft 174 kts 347°
2026-04-22 18:03 28.46712 -17.75291 2962 ft 167 kts 354°
2026-04-22 18:03 28.47850 -17.75354 2759 ft 161 kts 357°
2026-04-22 18:03 28.48945 -17.75369 2584 ft 155 kts 359°
2026-04-22 18:03 28.49936 -17.75375 2470 ft 134 kts 358°
2026-04-22 18:04 28.50858 -17.75386 2318 ft 132 kts 359°
2026-04-22 18:04 28.51782 -17.75397 2128 ft 133 kts 359°
2026-04-22 18:04 28.52715 -17.75410 1948 ft 134 kts 359°
2026-04-22 18:04 28.53626 -17.75423 1766 ft 130 kts 359°
2026-04-22 18:05 28.54526 -17.75440 1570 ft 127 kts 359°
2026-04-22 18:05 28.55402 -17.75457 1383 ft 124 kts 359°
2026-04-22 18:05 28.56260 -17.75469 1207 ft 125 kts 359°
2026-04-22 18:05 28.57126 -17.75485 1040 ft 124 kts 359°
2026-04-22 18:06 28.57986 -17.75511 898 ft 123 kts 359°
2026-04-22 18:06 28.58832 -17.75507 760 ft 122 kts
2026-04-22 18:06 28.59691 -17.75511 600 ft 124 kts 359°
2026-04-22 18:06 28.60552 -17.75527 436 ft 120 kts
2026-04-22 18:07 28.61357 -17.75533 220 ft 113 kts
2026-04-22 18:07 28.62117 -17.75549 114 ft 99 kts 357°
2026-04-22 18:07 28.62525 -17.75560 107 ft 23 kts 359°
2026-04-22 18:07 28.62632 -17.75517 105 ft 14 kts 82°
2026-04-22 18:08 28.62574 -17.75454 107 ft 12 kts 159°
2026-04-22 18:08 28.62438 -17.75443 108 ft 21 kts 179°
2026-04-22 18:08 28.62315 -17.75444 110 ft 17 kts 179°
2026-04-22 18:08 28.62191 -17.75442 111 ft 21 kts 178°
2026-04-22 18:09 28.62068 -17.75439 111 ft 15 kts 181°
2026-04-22 18:09 28.62011 -17.75412 110 ft 8 kts 109°
2026-04-22 18:09 28.62009 -17.75373 111 ft 5 kts 90°
2026-04-22 18:09 28.62010 -17.75358 111 ft 0 kts 88°